• Processing (Info)

  • MPEC 2020-B174 : 2020 BE8

    The following Minor Planet Electronic Circular may be linked-to from your own Web pages, but must not otherwise be redistributed electronically.

    A form allowing access to any MPEC is at the bottom of this page.


    Read MPEC 2020-B173 Read MPEC 2020-B175


    M.P.E.C. 2020-B174                             Issued 2020 January 25, 22:26 UT
    
         The Minor Planet Electronic Circulars contain information on unusual
             minor planets and routine data on comets.  They are published
        on behalf of Division F of the International Astronomical Union by the
              Minor Planet Center, Smithsonian Astrophysical Observatory,
                              Cambridge, MA 02138, U.S.A.
    
                 Prepared using the Tamkin Foundation Computer Network
    
                                  MPC@CFA.HARVARD.EDU
                URL https://www.minorplanetcenter.net/    ISSN 1523-6714
    
                                    2020 BE8                                 
    
    
    Observations:
         K20B08E  C2019 10 25.42868301 44 40.362+03 17 29.27         22.5 GVEB174F52
         K20B08E  C2019 10 25.44038001 44 39.281+03 17 19.52         23.0 GVEB174F52
         K20B08E  C2019 10 25.45209501 44 38.230+03 17 09.40         22.8 GVEB174F52
         K20B08E  C2019 10 25.46375601 44 37.177+03 16 59.59         22.7 GVEB174F52
         K20B08E  C2019 10 29.34686101 39 37.976+02 21 15.97         22.8 GVEB174F51
         K20B08E  C2019 10 29.35882001 39 36.807+02 21 05.40         22.3 GVEB174F51
         K20B08E  C2019 10 29.38273901 39 34.459+02 20 44.70         22.8 GVEB174F51
         K20B08E  C2019 11 02.37158301 34 02.903+01 22 20.09         21.7 GVEB174F52
         K20B08E  C2019 11 26.28369401 04 36.188-03 17 45.27         22.6 GVEB174F51
         K20B08E  C2019 11 26.29591301 04 35.327-03 17 50.14         22.6 GVEB174F51
         K20B08E  C2019 11 29.31183801 02 34.096-03 35 41.01         22.3 GVEB174F52
         K20B08E  C2019 11 29.32635201 02 33.196-03 35 44.68         22.6 GVEB174F52
         K20B08E  C2019 11 29.34092101 02 32.333-03 35 49.22         22.4 GVEB174F52
         K20B08E  C2019 11 29.35540701 02 31.468-03 35 53.41         23.2 GVEB174F52
         K20B08E  C2020 01 23.34541604 31 51.072+17 43 15.10         19.23GVEB174F52
         K20B08E  C2020 01 23.35853404 32 04.643+17 44 18.44               VEB174F52
         K20B08E  C2020 01 23.37220104 32 18.890+17 45 24.12         19.21GVEB174F52
         K20B08E  C2020 01 23.38560404 32 32.944+17 46 27.95         19.17GVEB174F52
         K20B08E* C2020 01 25.38283705 13 13.27 +20 26 04.2          19.01oVEB174T08
         K20B08E  C2020 01 25.39673205 13 29.47 +20 27 00.1          18.85oVEB174T08
         K20B08E  C2020 01 25.39952905 13 32.80 +20 27 11.1          19.25oVEB174T08
         K20B08E  C2020 01 25.41285605 13 48.53 +20 28 04.8          19.04oVEB174T08
         K20B08E  C2020 01 25.72037 05 20 48.71 +20 47 34.7          19.1 VVEB174033
         K20B08E  C2020 01 25.72095 05 20 49.36 +20 47 37.4          18.8 VVEB174033
         K20B08E  C2020 01 25.78505 05 22 08.30 +20 52 22.0          18.7 VVEB174033
         K20B08E  C2020 01 25.78561 05 22 08.99 +20 52 24.7          19.1 VVEB174033
         K20B08E  C2020 01 25.78619 05 22 09.65 +20 52 27.0          19.2 VVEB174033
         K20B08E KC2020 01 25.84297 05 23 15.96 +20 56 47.4          18.9 VVEB174L04
         K20B08E KC2020 01 25.84970 05 23 24.17 +20 57 14.4          19.2 VVEB174L04
         K20B08E KC2020 01 25.85664 05 23 32.58 +20 57 42.6          18.9 VVEB174L04
    
    Observer details:
    033 Karl Schwarzschild Observatory, Tautenburg.  Observers S. Melnikov, F. 
       Ludwig, B. Stecklum.  Measurer B. Stecklum.  1.34-m f/3 Schmidt + CCD.
    F51 Pan-STARRS 1, Haleakala.  Observers J. Bulger, K. Chambers, T. Lowe, A. 
       Schultz, M. Willman.  Measurers S. Chastel, M. Huber, Y. Ramanjooloo, R. 
       Wainscoat, R. Weryk.  1.8-m Ritchey-Chretien + CCD.
    F52 Pan-STARRS 2, Haleakala.  Observers J. Bulger, K. Chambers, T. Dukes, T. 
       Lowe, A. Schultz, M. Willman.  Measurers S. Chastel, M. Huber, Y. 
       Ramanjooloo, R. Wainscoat, R. Weryk.  1.8-m Ritchey-Chretien + CCD.
    L04 ROASTERR-1 Observatory, Cluj-Napoca.  Observer L. Hudin.  0.3-m f/5 
       reflector + CCD.
    T08 ATLAS-MLO, Mauna Loa.  Observers L. Denneau, J. Tonry, A. Heinze, H. 
       Weiland, H. Flewelling.  Measurers L. Denneau, J. Tonry, A. Heinze, H. 
       Weiland, H. Flewelling, B. Stalder, A. Fitzsimmons, J. Robinson, N. Erasmus. 
        0.5-m reflector + CCD.
    
    Orbital elements:
    2020 BE8                                                 Earth MOID = 0.0135 AU
    Epoch 2020 May 31.0 TT = JDT 2459000.5                  Bell
    M  81.68551              (2000.0)            P               Q
    n   0.57640064     Peri.  339.58201     -0.28239126     -0.95914036
    a   1.4299464      Node   126.81699     +0.88313930     -0.26703711
    e   0.3042808      Incl.    1.24992     +0.37459331     -0.09349309
    P   1.71           H   25.3           G   0.15           U   4
    Residuals in seconds of arc
    191025 F52  0.3+  0.1-    191129 F52  0.2+  0.4-    200125 T08  0.3-  0.5-
    191025 F52  0.1-  0.0     191129 F52  0.2-  0.2+    200125 T08  0.6-  0.5-
    191025 F52  0.1-  0.2-    191129 F52  0.0   0.0     200125 033  0.5+  0.1+
    191025 F52  0.3-  0.1-    191129 F52  0.2-  0.1+    200125 033  0.5-  0.2+
    191029 F51  0.1+  0.0     200123 F52  0.1+  0.1+    200125 033  0.1+  0.1-
    191029 F51  0.0   0.1-    200123 F52  0.1-  0.1-    200125 033  0.1+  0.2+
    191029 F51  0.1-  0.1+    200123 F52  0.0   0.0     200125 033  0.6-  0.0
    191102 F52  0.1-  0.1+    200123 F52  0.1+  0.1+    200125 L04  0.1+  0.1+
    191126 F51  0.1-  0.0     200125 T08  0.9+  0.7+    200125 L04  0.6+  0.2-
    191126 F51  0.1+  0.1+    200125 T08  0.7-  0.2-    200125 L04  0.2+  0.1-
    
    Ephemeris:
    2020 BE8                 a,e,i = 1.43, 0.30, 1                   q = 0.9948
    Date    TT    R. A. (2000) Decl.     Delta      r    Elong.  Phase     V
    2019 12 26    01 15 08.9 -02 17 06   0.08118 1.0044   102.7    72.8    22.4
    ...
    2020 01 10    02 04 02.4 +03 21 33   0.05085 0.9943   101.0    76.1    21.5
    ...
    2020 01 18    03 09 52.7 +10 29 31   0.03624 0.9972   110.7    67.3    20.5
    ...
    2020 01 24    04 44 43.7 +18 38 01   0.02946 1.0030   128.9    49.8    19.5
    2020 01 25    05 05 14.2 +19 57 26   0.02898 1.0043   132.9    45.9    19.4
    2020 01 26    05 26 43.1 +21 09 44   0.02874 1.0057   137.0    41.9    19.2
    ...
    2020 02 01    07 34 42.6 +24 22 08   0.03234 1.0156   160.0    19.4    18.9
    ...
    2020 02 09    09 20 25.0 +21 45 47   0.04722 1.0333   173.0     6.6    19.2
    ...
    2020 02 24    10 28 34.7 +17 06 17   0.08921 1.0780   172.7     6.7    20.7
    
    A. U. Tomatic                (C) Copyright 2020 MPC           M.P.E.C. 2020-B174
    


    Read MPEC 2020-B173 Read MPEC 2020-B175


    MPEC number:

    Enter an MPEC number in one of the following forms:

    • 1997-B01 (the full form)
    • J97B01 (the packed version of the full form)
    • B01 (the abbreviated form)